Location: Kawakawa
(35.3830°S, 174.0670°E)
Time: 10:26:13
(UTC+13:00)

Resurs 01 Rocket - Pass Details

Date: 24 January 2019
Orbit: 635 x 643 km, 98.1° (Epoch: 15 February)

Event Time Altitude Azimuth Distance (km) Brightness Sun altitude
Rises 21:37:37 0° 153° (SSE) 2,971 5.2 -11.5°
Reaches altitude 10° 21:40:10 10° 140° (SE) 2,052 4.2 -11.9°
Maximum altitude 21:43:52 25° 84° (E) 1,299 2.7 -12.6°
Enters shadow 21:45:44 19° 48° (NE) 1,521 2.9 -12.9°
